Location: Albany
(35.0000°S, 118.0000°E)
Time: 10:45:56
(UTC-05:00)

ADEOS Rocket - Visible Passes

Search period start: 19 February 2018 00:00
Search period end: 01 March 2018 00:00
Orbit: 859 x 1307 km, 98.8° (Epoch: 18 February)

Date Brightness Start Highest point End Pass type
(mag) Time Alt. Az. Time Alt. Az. Time Alt. Az.
19 Feb 5.0 09:18:32 23° SE 09:18:32 23° SE 09:23:13 10° SSE visible
19 Feb 4.6 11:05:30 38° SSW 11:05:30 38° SSW 11:09:52 10° SSW visible
20 Feb 4.5 10:16:02 41° SSE 10:16:02 41° SSE 10:20:53 10° S visible
20 Feb 5.4 12:03:00 18° SW 12:03:00 18° SW 12:05:15 10° SW visible
21 Feb 4.9 09:26:35 26° SE 09:26:35 26° SE 09:31:05 10° S visible
21 Feb 4.8 11:13:33 33° SW 11:13:33 33° SW 11:17:25 10° SSW visible
22 Feb 5.5 08:37:07 12° SE 08:37:07 12° SE 08:39:16 10° SE visible
22 Feb 4.5 10:24:05 40° S 10:24:05 40° S 10:28:33 10° S visible
22 Feb 5.6 12:11:03 14° SW 12:11:03 14° SW 12:12:29 10° SW visible
23 Feb 4.9 09:34:38 27° SE 09:34:38 27° SE 09:38:53 10° S visible
23 Feb 5.0 11:21:35 28° SW 11:21:35 28° SW 11:24:55 10° SSW visible
24 Feb 5.4 08:45:10 13° SE 08:45:10 13° SE 08:47:43 10° SSE visible
24 Feb 4.7 10:32:08 37° S 10:32:08 37° S 10:36:11 10° S visible
24 Feb 5.7 12:19:06 11° SW 12:19:06 11° SW 12:19:36 10° SW visible
25 Feb 4.8 09:42:41 28° SSE 09:42:41 28° SSE 09:46:40 10° S visible
25 Feb 5.2 11:29:38 23° SW 11:29:38 23° SW 11:32:22 10° SSW visible
26 Feb 5.3 08:53:13 15° SE 08:53:13 15° SE 08:55:54 10° SSE visible
26 Feb 4.8 10:40:11 33° SSW 10:40:11 33° SSW 10:43:47 10° SSW visible
27 Feb 4.9 09:50:44 29° SSE 09:50:44 29° SSE 09:54:23 10° S visible
27 Feb 5.4 11:37:42 19° SW 11:37:42 19° SW 11:39:47 10° SSW visible
28 Feb 5.3 09:01:16 16° SE 09:01:16 16° SE 09:03:56 10° SSE visible
28 Feb 5.0 10:48:14 29° SSW 10:48:14 29° SSW 10:51:22 10° SSW visible
